Temp
21 20 20 20 19 19 19 19 18 18 17 17 17 17 16 16 15 15 15 15 14 13 13 13 13 12 13 14 14 15 15 15 15 16 16 16 15 15 15 15 15 16 18
21 20 19 20 19 19 19 18 18 18 17 17 17 16 16 16 14 14 13 13 13 13 13 12 13 12 13 12 12 13 13 13 13 14 15 15 16 16 15 15 15 16 17
20 20 20 20 19 19 19 18 18 18 17 17 16 16 17 17 15 13 14 12 12 12 12 11 11 12 13 14 11 11 12 12 13 13 14 16 15 15 14 15 15 15 16
21 20 21 21 19 19 19 18 17 17 17 17 18 17 17 16 16 13 13 13 12 11 12 11 13 13 13 14 11 13 13 12 13 13 14 14 14 13 12 12 12 13 13
22 21 21 19 19 18 18 19 18 18 18 18 17 17 16 14 16 15 14 12 11 11 12 11 13 14 14 14 13 13 13 12 11 12 13 13 12 11 11 10 11 11 11
19 18 19 19 18 17 17 18 18 18 18 17 17 17 16 16 16 15 13 14 13 13 11 11 11 13 12 12 12 12 12 11 11 10 10 10 10 9 9 9 10 9 9
20 20 19 19 18 17 16 17 17 18 18 17 17 17 16 16 15 15 14 11 11 12 12 11 11 11 12 12 9 9 10 10 10 10 8 8 9 9 10 8 9 8 10
20 18 16 17 16 16 16 18 17 18 18 17 16 16 15 15 14 14 14 11 12 12 11 10 11 11 11 11 10 9 10 10 9 9 9 9 8 9 9 9 9 10 11
19 18 16 16 16 16 17 18 18 17 16 16 15 15 15 14 14 13 12 11 10 10 11 11 11 11 11 10 10 9 9 10 9 9 9 10 10 9 9 8 9 10 10
16 17 16 16 15 18 18 17 16 16 15 14 14 14 14 14 14 13 12 13 11 12 12 11 11 11 11 11 11 11 9 9 10 10 10 11 11 10 10 9 9 9 9
16 16 16 15 17 17 17 17 16 15 14 13 13 14 13 13 13 12 12 12 12 12 12 13 12 11 11 11 11 11 10 10 10 10 11 12 12 12 11 10 8 8 9
16 16 16 16 15 16 16 16 15 14 14 14 13 12 10 12 12 12 12 12 11 11 10 11 11 11 11 11 11 11 11 10 9 11 12 11 11 11 11 10 9 9 8
16 16 16 15 15 15 15 15 15 14 12 11 11 13 12 10 11 11 11 11 11 11 10 11 11 12 12 11 12 12 11 11 11 12 11 11 11 11 10 10 10 10 10
16 16 15 15 15 15 14 15 13 13 13 13 13 14 14 13 12 12 12 11 11 11 11 11 11 12 13 13 13 13 13 12 12 12 12 12 11 11 11 11 10 11 11
16 16 15 14 14 14 14 14 15 14 14 14 14 14 14 14 13 12 12 11 11 11 11 12 11 13 13 13 13 13 13 12 12 12 11 11 10 10 11 11 11 10 11
16 15 15 15 14 15 14 14 14 14 14 14 14 14 13 13 12 12 12 11 11 12 12 12 12 13 13 13 13 13 12 12 11 10 10 10 10 10 10 10 10 10 11
16 16 15 15 16 15 15 14 13 14 14 13 13 12 12 12 12 11 11 12 12 12 12 12 13 13 13 13 13 12 11 11 10 10 9 9 9 9 10 10 10 10 10
15 14 15 16 16 16 15 15 15 13 12 12 12 12 12 12 11 11 12 12 12 13 13 13 13 12 13 12 11 11 10 9 9 9 9 9 9 9 9 9 9 9 9
15 15 16 16 16 15 15 15 14 14 14 14 13 13 13 12 12 12 12 13 12 13 13 13 12 13 12 11 10 9 8 8 8 8 8 9 9 9 9 9 8 7 7
15 15 16 15 14 15 14 14 15 14 14 14 15 15 13 13 13 13 13 13 12 12 13 12 12 11 10 9 9 8 8 8 8 8 7 7 7 7 7 7 7 7 7
15 15 15 15 15 15 15 15 15 15 15 15 15 15 15 14 14 14 14 13 13 12 12 12 11 10 10 9 8 8 7 7 7 7 6 6 5 6 6 6 7 7 8
15 14 15 16 16 15 15 15 15 15 16 16 16 15 14 14 14 13 13 13 13 13 12 11 10 9 9 8 7 7 6 6 6 5 4 4 4 4 4 5 6 7 7
16 16 16 16 16 15 15 16 16 16 16 16 16 15 14 14 14 14 14 13 13 12 11 10 9 9 8 7 6 6 6 6 4 4 4 4 4 3 4 5 6 7 7
16 16 16 16 16 15 15 15 16 15 15 16 16 16 15 14 14 13 13 12 12 11 10 10 9 8 7 6 6 6 6 5 4 5 5 5 5 3 3 4 5 6 7
16 16 16 16 15 15 16 16 16 16 16 15 15 15 14 13 13 13 12 12 12 11 10 9 8 8 7 6 6 5 5 4 5 5 5 5 5 5 4 4 5 6 6
16 16 16 16 16 16 16 16 16 16 16 15 15 14 14 13 13 12 12 12 11 10 9 9 8 7 6 6 6 5 5 5 5 5 5 5 6 4 4 5 5 6 6
Height
1515 1520 1524 1527 1528 1531 1535 1538 1541 1543 1543 1543 1543 1544 1545 1545 1543 1542 1541 1538 1537 1535 1532 1531 1529 1526 1524 1524 1522 1522 1519 1518 1515 1513 1511 1509 1505 1504 1501 1500 1498 1497 1497
1512 1515 1520 1524 1526 1530 1533 1534 1538 1541 1542 1542 1543 1543 1543 1542 1541 1540 1539 1537 1535 1533 1530 1529 1526 1525 1523 1523 1521 1519 1519 1515 1513 1510 1509 1507 1505 1503 1501 1497 1496 1495 1494
1508 1511 1515 1520 1523 1527 1531 1533 1536 1537 1540 1542 1541 1541 1540 1539 1539 1538 1537 1536 1536 1534 1531 1529 1527 1524 1522 1519 1519 1517 1516 1513 1512 1509 1507 1506 1504 1500 1496 1496 1493 1492 1491
1502 1508 1509 1512 1517 1523 1524 1528 1532 1534 1537 1539 1539 1539 1539 1538 1537 1537 1536 1535 1534 1533 1530 1528 1527 1525 1523 1521 1519 1516 1514 1512 1512 1509 1507 1504 1502 1498 1494 1492 1488 1488 1485
1500 1504 1508 1511 1514 1519 1521 1512 1525 1530 1534 1537 1538 1537 1537 1537 1536 1536 1534 1534 1534 1533 1532 1531 1527 1527 1525 1523 1521 1518 1515 1513 1512 1509 1507 1505 1502 1497 1494 1490 1487 1483 1481
1500 1505 1508 1511 1514 1518 1518 1516 1520 1526 1530 1534 1535 1534 1536 1535 1534 1534 1534 1533 1533 1532 1532 1531 1530 1527 1525 1523 1521 1519 1516 1514 1512 1510 1508 1503 1501 1498 1494 1490 1486 1482 1475
1499 1502 1505 1509 1514 1516 1518 1521 1522 1525 1527 1530 1532 1534 1535 1535 1534 1533 1534 1535 1535 1534 1533 1531 1533 1529 1525 1523 1522 1521 1518 1514 1511 1509 1507 1503 1499 1496 1491 1488 1486 1482 1479
1495 1499 1503 1506 1511 1513 1516 1518 1520 1523 1525 1529 1532 1533 1534 1534 1535 1535 1534 1536 1535 1534 1534 1532 1531 1529 1526 1524 1522 1521 1519 1517 1513 1509 1506 1503 1500 1496 1493 1488 1485 1483 1480
1493 1497 1500 1502 1507 1511 1515 1517 1520 1523 1526 1529 1531 1532 1533 1534 1535 1536 1535 1538 1536 1536 1535 1534 1532 1530 1528 1524 1521 1520 1517 1515 1510 1506 1503 1501 1498 1494 1491 1488 1486 1482 1477
1493 1496 1502 1502 1505 1509 1512 1516 1519 1523 1526 1529 1530 1531 1533 1533 1533 1535 1536 1539 1537 1537 1535 1534 1533 1532 1529 1524 1521 1518 1514 1512 1507 1503 1501 1500 1496 1493 1490 1486 1484 1482 1477
1492 1498 1502 1503 1506 1510 1512 1516 1519 1522 1525 1527 1529 1531 1532 1533 1533 1534 1536 1535 1537 1537 1537 1537 1534 1530 1528 1525 1520 1516 1513 1508 1503 1500 1499 1498 1495 1494 1492 1487 1482 1479 1476
1493 1497 1501 1503 1506 1509 1512 1515 1519 1522 1525 1526 1528 1532 1534 1533 1534 1534 1532 1533 1534 1535 1535 1535 1534 1528 1525 1521 1519 1513 1509 1505 1501 1500 1497 1494 1491 1489 1487 1484 1478 1474 1473
1491 1495 1498 1501 1505 1509 1512 1516 1518 1522 1525 1527 1530 1533 1534 1534 1534 1534 1533 1533 1535 1533 1531 1530 1528 1525 1521 1517 1514 1511 1507 1502 1501 1498 1495 1490 1487 1485 1482 1478 1475 1472 1468
1494 1498 1500 1503 1504 1509 1512 1515 1519 1522 1524 1527 1528 1531 1532 1533 1534 1532 1532 1532 1533 1532 1529 1527 1524 1521 1518 1514 1512 1509 1505 1501 1499 1495 1490 1486 1483 1480 1478 1475 1471 1467 1464
1491 1497 1501 1503 1506 1509 1514 1517 1520 1521 1524 1525 1527 1529 1529 1530 1531 1531 1532 1532 1532 1531 1527 1524 1520 1520 1516 1513 1512 1509 1503 1499 1495 1491 1486 1482 1479 1476 1473 1471 1467 1462 1459
1490 1496 1502 1505 1507 1511 1512 1514 1516 1517 1520 1522 1523 1525 1527 1525 1527 1529 1530 1530 1529 1527 1524 1521 1519 1516 1514 1512 1509 1504 1499 1495 1491 1486 1483 1478 1475 1473 1468 1465 1462 1458 1455
1490 1493 1498 1504 1508 1510 1511 1512 1513 1516 1518 1520 1522 1524 1524 1525 1526 1527 1528 1527 1525 1522 1519 1518 1516 1515 1514 1509 1505 1500 1495 1491 1487 1483 1480 1476 1473 1469 1465 1461 1458 1455 1451
1489 1494 1498 1505 1508 1510 1511 1512 1515 1515 1517 1520 1521 1522 1523 1525 1525 1525 1525 1523 1521 1517 1517 1515 1514 1512 1509 1504 1500 1496 1492 1487 1483 1480 1477 1473 1469 1464 1460 1457 1454 1451 1448
1490 1496 1501 1506 1508 1509 1510 1512 1514 1515 1518 1519 1520 1520 1520 1521 1521 1521 1521 1520 1518 1517 1515 1514 1511 1508 1505 1501 1496 1492 1488 1484 1481 1477 1473 1469 1464 1461 1457 1454 1451 1448 1444
1494 1499 1499 1501 1504 1508 1510 1511 1513 1515 1515 1517 1517 1516 1516 1517 1519 1519 1517 1516 1515 1513 1511 1509 1507 1504 1500 1496 1492 1488 1485 1481 1477 1473 1469 1465 1461 1457 1454 1450 1447 1444 1439
1494 1497 1497 1500 1504 1506 1508 1510 1512 1513 1513 1513 1513 1515 1515 1517 1517 1515 1515 1513 1512 1511 1507 1506 1504 1500 1496 1492 1488 1484 1481 1477 1473 1469 1465 1461 1457 1453 1450 1447 1443 1440 1436
1495 1497 1498 1501 1504 1506 1506 1509 1511 1511 1510 1510 1511 1511 1513 1514 1513 1512 1511 1511 1509 1507 1506 1503 1499 1496 1492 1488 1484 1481 1477 1474 1470 1466 1461 1457 1453 1449 1446 1443 1440 1437 1433
1495 1496 1498 1500 1501 1503 1507 1508 1508 1508 1508 1508 1509 1508 1509 1510 1510 1509 1508 1506 1506 1505 1503 1499 1496 1493 1489 1484 1481 1478 1475 1471 1466 1461 1455 1450 1446 1444 1442 1439 1437 1433 1429
1493 1495 1498 1500 1501 1504 1505 1506 1506 1507 1507 1508 1507 1507 1508 1508 1508 1506 1505 1504 1503 1502 1499 1496 1492 1488 1485 1481 1478 1475 1472 1466 1461 1456 1451 1446 1442 1440 1438 1436 1434 1430 1426
1492 1494 1496 1498 1499 1502 1503 1503 1503 1504 1505 1506 1506 1505 1505 1505 1504 1504 1503 1501 1500 1498 1496 1492 1489 1486 1482 1477 1475 1470 1465 1461 1455 1451 1446 1442 1439 1436 1434 1433 1431 1427 1422
1491 1493 1495 1496 1497 1499 1500 1500 1501 1502 1502 1503 1503 1503 1503 1502 1502 1501 1500 1498 1496 1494 1491 1488 1485 1482 1478 1475 1469 1466 1461 1455 1450 1446 1442 1438 1435 1433 1432 1430 1428 1425 1420
Wind_Speed
21 18 17 16 15 15 12 12 11 9 6 4 1 1 3 4 6 6 6 10 8 7 7 8 9 10 10 9 9 9 9 10 12 14 14 14 14 14 13 13 12 10 14
23 21 18 17 17 16 14 14 13 9 5 3 1 2 2 4 8 7 5 5 5 5 8 8 10 9 9 10 9 12 10 10 11 17 16 15 14 16 14 16 13 10 11
26 22 21 21 19 17 16 15 13 11 7 3 2 3 6 10 7 6 6 6 6 8 8 7 9 10 9 9 10 9 10 11 10 11 14 12 12 13 15 13 13 13 12
26 23 22 23 23 21 22 19 15 12 9 5 4 5 8 9 6 4 5 6 5 6 7 7 12 13 14 14 11 12 13 12 11 12 12 12 11 15 14 14 15 13 14
25 25 22 23 24 26 28 26 19 14 8 6 4 5 6 4 6 5 5 5 5 7 8 8 12 13 13 14 15 15 17 15 13 13 12 14 14 16 18 17 16 18 16
22 19 21 23 27 26 20 19 23 14 8 6 5 5 6 7 4 2 3 4 5 6 7 8 12 13 14 15 15 15 16 20 19 15 14 15 16 17 17 17 17 20 21
20 20 20 28 28 23 20 18 13 10 8 8 5 7 7 4 0 4 6 5 5 7 7 8 7 12 14 12 13 14 16 21 21 16 15 14 17 19 20 19 17 17 19
15 14 17 20 23 25 23 19 13 9 7 6 5 5 3 5 7 5 5 5 5 6 6 7 8 12 15 16 12 11 11 11 16 15 15 18 17 16 21 17 19 21 18
15 20 21 24 24 21 22 17 12 9 8 8 7 5 6 8 6 4 7 3 3 4 7 8 11 14 16 17 16 12 13 14 18 18 17 19 20 19 21 16 16 18 19
17 18 22 24 23 23 20 16 13 11 9 8 7 8 8 8 6 4 8 2 2 3 8 12 13 16 17 17 17 18 15 17 23 14 14 17 17 17 19 15 16 18 18
18 20 23 21 22 19 18 16 13 11 11 9 9 9 10 8 6 5 5 5 1 3 5 8 11 17 21 20 19 19 21 23 25 13 16 17 16 16 15 16 16 15 18
21 22 20 20 21 18 16 15 13 13 11 10 10 9 7 6 5 3 2 1 1 5 7 10 14 19 18 19 17 24 21 23 17 16 19 20 18 18 18 20 21 18 20
21 24 26 23 19 17 16 13 13 11 10 10 10 8 7 5 5 1 1 2 5 8 8 13 18 16 17 18 20 23 20 22 16 23 24 21 21 22 23 21 19 21 23
23 23 24 20 18 16 14 13 11 12 10 11 10 9 8 7 6 7 7 7 10 12 12 16 21 17 18 17 19 21 21 20 23 24 24 24 23 22 22 20 21 21 22
24 23 19 19 15 16 13 12 11 12 11 11 10 9 8 7 9 10 8 7 8 11 16 21 17 16 20 23 20 21 22 22 23 23 24 25 24 21 21 20 21 21 23
23 20 17 17 16 16 15 17 17 11 16 18 16 13 9 10 8 10 11 10 10 15 19 19 15 18 22 22 23 24 25 25 23 23 24 22 23 22 22 22 22 21 23
19 23 20 16 16 15 12 11 10 12 12 13 13 14 13 9 9 10 10 11 12 17 20 16 20 20 23 23 24 26 26 24 25 21 21 22 22 21 21 21 21 22 22
21 22 19 15 14 12 10 9 8 8 8 10 10 5 7 9 10 10 10 13 14 17 13 15 17 21 22 23 25 24 23 22 21 21 22 20 21 21 22 22 22 22 22
16 17 15 13 12 12 11 10 8 7 7 6 7 10 5 4 6 8 12 14 13 13 15 16 19 20 22 23 21 20 21 20 21 21 20 20 20 21 21 21 22 22 25
15 17 18 18 15 11 9 8 7 7 6 6 6 5 10 5 7 12 14 13 16 15 16 15 17 19 20 19 18 18 18 19 19 18 19 19 19 20 20 20 19 22 27
19 22 16 12 11 9 9 8 7 7 6 5 5 7 7 6 12 12 10 10 16 15 13 15 16 18 17 17 16 17 17 17 17 17 19 19 20 20 19 18 20 23 22
14 14 12 11 11 11 8 8 8 7 5 6 5 7 8 9 9 12 9 11 11 11 14 14 15 16 15 15 15 15 16 16 17 18 20 20 19 19 19 18 19 19 23
12 12 12 12 11 9 9 9 8 6 6 7 7 7 6 7 9 12 13 10 11 12 13 14 14 14 13 14 13 15 15 16 17 27 25 23 23 20 18 18 19 22 23
13 12 12 11 10 9 9 8 8 8 8 8 8 8 7 10 10 11 11 9 12 12 12 13 14 14 14 14 14 13 16 23 29 26 25 25 23 19 18 18 17 22 25
12 13 13 12 11 11 10 9 8 6 5 6 8 7 8 7 9 12 12 11 11 11 13 14 13 14 14 16 14 14 25 28 24 24 24 23 22 20 16 17 18 20 24
12 13 13 11 11 10 10 9 7 7 6 5 6 7 8 9 12 12 11 13 12 12 13 12 13 14 14 13 18 25 28 24 23 23 23 21 20 16 15 18 20 22 24
Wind_Direction
181 183 187 184 187 175 178 171 165 157 158 165 188 177 6 342 321 347 344 315 342 354 349 347 333 343 339 340 341 330 336 327 318 311 324 315 334 329 316 316 311 315 306
188 180 186 183 184 175 180 169 164 173 185 163 228 50 54 327 329 330 342 333 349 343 336 352 340 353 359 337 357 328 336 334 325 323 321 333 329 323 324 306 321 310 293
189 183 184 194 188 177 177 170 170 182 186 175 184 276 326 332 337 340 353 353 357 350 5 8 352 357 358 359 10 353 345 344 340 327 331 333 332 322 318 336 319 315 315
191 175 195 189 185 180 179 165 180 181 191 224 281 320 325 330 340 349 344 347 15 357 30 10 13 18 19 17 12 8 355 9 347 346 342 334 334 324 338 332 332 326 312
185 191 198 192 188 180 181 168 186 193 208 239 260 304 330 337 326 330 3 27 46 43 50 41 24 16 18 16 14 10 12 9 358 349 344 338 338 334 340 333 328 325 326
180 186 195 195 186 182 199 196 184 186 212 240 247 295 289 299 325 326 87 79 80 69 54 48 17 15 10 6 6 6 7 5 0 352 343 339 328 336 326 325 328 324 329
183 205 204 195 195 216 190 187 178 187 208 245 272 290 298 295 99 121 118 103 72 56 57 61 43 27 26 16 13 7 355 354 345 4 338 340 338 338 338 335 328 329 323
196 180 184 187 189 191 192 197 193 212 222 240 236 254 238 145 135 135 118 90 80 69 59 49 39 27 19 17 17 359 358 351 331 344 353 351 348 350 356 344 350 333 328
189 180 183 181 191 191 186 189 201 202 205 207 219 212 165 154 145 120 102 84 52 33 18 35 30 8 4 3 5 344 340 335 347 330 348 337 339 342 346 353 339 337 330
173 172 174 182 176 174 182 185 183 191 195 185 190 175 166 166 155 137 129 141 2 310 338 335 331 337 341 345 345 344 335 325 339 345 336 327 323 334 331 339 331 330 331
168 170 180 179 173 179 182 185 185 172 177 178 176 177 178 178 169 151 147 109 282 327 311 315 316 313 325 325 325 334 335 338 334 333 331 323 316 310 308 304 318 317 320
173 173 177 175 177 177 178 177 172 184 186 184 180 166 186 194 186 165 142 151 330 324 319 313 313 313 325 331 331 341 339 334 333 323 319 318 316 312 307 303 319 316 307
172 171 174 176 176 178 175 178 181 177 169 163 170 172 197 209 235 207 219 302 317 340 337 321 323 333 332 329 330 328 324 326 314 316 315 314 313 307 308 310 307 307 315
168 174 168 169 173 170 168 168 166 167 174 175 180 188 203 213 223 271 305 318 328 330 323 315 322 327 325 326 326 331 326 318 311 310 310 310 308 305 302 304 305 306 308
174 161 159 169 159 159 157 162 175 180 187 189 192 199 205 218 223 220 241 268 288 299 317 323 320 317 328 325 321 319 319 317 313 311 310 309 308 307 302 303 304 305 304
161 158 165 159 161 162 174 176 180 197 193 191 196 185 209 222 226 247 259 266 294 310 315 316 304 315 318 318 321 320 321 318 315 312 311 309 306 303 303 304 303 301 304
157 164 169 166 166 174 168 169 177 198 197 206 220 218 222 238 242 254 260 276 301 305 305 312 317 323 320 320 319 319 318 315 313 314 310 306 304 303 304 303 303 301 304
164 168 161 168 173 169 169 163 179 177 198 212 219 232 255 245 253 265 267 285 303 308 327 323 315 312 318 319 317 316 315 316 316 312 309 309 308 307 305 303 302 302 302
176 156 160 173 173 172 170 175 184 179 201 214 235 248 241 252 262 249 263 285 295 297 306 306 313 317 316 315 315 316 315 316 314 315 314 312 311 308 306 302 300 301 303
163 167 171 177 173 170 183 177 185 199 210 221 233 248 204 267 266 277 283 283 280 291 302 307 313 312 315 316 315 316 316 316 317 318 318 318 315 311 309 307 305 303 305
184 182 173 162 173 184 182 190 200 201 209 213 228 218 207 275 282 281 291 285 303 298 308 311 309 314 316 314 315 317 318 318 321 322 321 319 318 315 310 306 305 306 309
180 176 175 178 184 184 185 198 201 206 212 234 243 204 262 276 279 290 278 301 297 305 310 308 312 316 317 315 318 320 320 323 322 320 320 319 318 313 312 309 307 305 309
181 183 180 181 180 184 196 204 202 216 241 249 258 227 230 260 297 292 291 301 318 312 306 311 316 316 314 316 322 321 321 314 310 318 321 322 319 315 310 311 311 308 314
186 185 184 182 187 200 201 197 220 253 261 277 270 261 270 288 296 308 313 312 304 302 310 314 315 316 312 320 318 321 305 304 314 318 322 323 322 315 305 304 311 316 317
189 187 188 190 197 208 206 220 216 210 242 259 280 279 289 295 299 305 305 308 296 300 309 312 314 309 314 315 319 301 314 320 319 321 323 324 321 317 312 309 310 317 318
188 190 196 203 208 213 210 215 223 238 255 265 278 291 285 294 306 303 297 296 290 293 305 310 308 309 314 322 293 309 319 323 326 328 326 324 323 317 309 308 314 315 315